User: anonymous   Login
Location: Unspecified
(0.0000°N, 0.0000°E)
Time: 20:15:19
(UTC+00:00)
Language:

TBA - TO BE ASSIGNED - Orbit

View from above orbital plane
View from above orbital plane
View from above satellite
View from above satellite

Ground track
Ground track

The orbit is defined by the following mean orbital elements,

1 67541U          26145.25812315 +.00000000 +00000-0 +84496-3 0 00005
2 67541  97.2865  32.3918 0001915  96.7915 263.3546 15.33455383    00
Epoch (UTC): 25 May 2026 06:11:41
Eccentricity: 0.0001915
inclination: 97.2865°
perigee height: 464 km
apogee height: 467 km
right ascension of ascending node: 32.3918°
argument of perigee: 96.7915°
revolutions per day: 15.33455383
mean anomaly at epoch: 263.3546°

The dashed part of the orbit path shows where the satellite is in the earth's shadow,  

DLR